Preston, Minnesota, United States (55965)
Lat: 43.67N, Lon: 92.08W
Wx Zone: MNZ095
Local Info
Past Weather Observations for Today

NOTE: This archive is for the closest National Weather Service station to Preston. Information may differ from the station used for current weather conditions.

Click here for Long-term Archive

Time Weather Temperature Dewpoint Humidity Pressure Winds Precip Visibility
15:35
Partly Cloudy
81°F / 27°C 75°F / 24°C 84% 29.89 in
(1012 mb)
S 10.4 mph
(S 17 kph)
- 10SM
15:16
Partly Cloudy
81°F / 27°C 75°F / 24°C 84% 29.86 in
(1011 mb)
S 9.2 mph
(S 15 kph)
- 7SM
14:55
Mostly Cloudy
79°F / 26°C 75°F / 24°C 89% 29.86 in
(1011 mb)
S 12.7 mph
(S 20 kph)
- 10SM
14:36
Mostly Cloudy
79°F / 26°C 75°F / 24°C 89% 29.86 in
(1011 mb)
S 9.2 mph
(S 15 kph)
- 7SM
14:16
Mostly Cloudy
79°F / 26°C 75°F / 24°C 89% 29.86 in
(1011 mb)
SSE 10.4 mph
(SSE 17 kph)
- 10SM
13:56
Mostly Cloudy
79°F / 26°C 75°F / 24°C 89% 29.86 in
(1011 mb)
SE 13.8 mph
(SE 22 kph)
- 10SM
13:36
Partly Cloudy
79°F / 26°C 75°F / 24°C 89% 29.86 in
(1011 mb)
SSE 13.8 mph
(SSE 22 kph)
- 10SM
13:16
Partly Cloudy
79°F / 26°C 75°F / 24°C 89% 29.86 in
(1011 mb)
SSE 9.2 mph
(SSE 15 kph)
- 10SM
12:56
Partly Cloudy
77°F / 25°C 75°F / 24°C 94% 29.83 in
(1010 mb)
SSE 9.2 mph
(SSE 15 kph)
- 10SM
12:36
Mostly Cloudy
77°F / 25°C 75°F / 24°C 94% 29.83 in
(1010 mb)
S 9.2 mph
(S 15 kph)
- 7SM
12:16
Mostly Cloudy
75°F / 24°C 73°F / 23°C 94% 29.83 in
(1010 mb)
SSE 13.8 mph
(SSE 22 kph)
- 10SM
11:56
Mostly Cloudy
75°F / 24°C 75°F / 24°C 100% 29.83 in
(1010 mb)
S 11.5 mph
(S 19 kph)
- 10SM
11:36
Overcast
73°F / 23°C 73°F / 23°C 100% 29.83 in
(1010 mb)
S 12.7 mph
(S 20 kph)
- 10SM
11:16
Overcast
73°F / 23°C 73°F / 23°C 100% 29.86 in
(1011 mb)
S 13.8 mph
(S 22 kph)
- 10SM
10:56
Overcast
73°F / 23°C 73°F / 23°C 100% 29.89 in
(1012 mb)
S 13.8 mph
(S 22 kph)
- 10SM
10:36
Partly Cloudy
73°F / 23°C 73°F / 23°C 100% 29.89 in
(1012 mb)
S 15 mph
(S 24 kph)
- 10SM
10:16
Clear
70°F / 21°C 70°F / 21°C 100% 29.83 in
(1010 mb)
S 16.1 mph
(S 26 kph)
- 10SM
09:56
Partly Cloudy
68°F / 20°C 68°F / 20°C 100% 29.8 in
(1009 mb)
S 17.3 mph
(S 28 kph)
0.02 in
(0.51 mm)
10SM
09:36
Mostly Cloudy
Thunder Storms
68°F / 20°C 68°F / 20°C 100% 29.8 in
(1009 mb)
SSE 23 mph
(SSE 37 kph)
0.02 in
(0.51 mm)
10SM
09:15
Overcast
Light Rain
68°F / 20°C 68°F / 20°C 100% 29.83 in
(1010 mb)
SSE 13.8 mph
(SSE 22 kph)
0.01 in
(0.25 mm)
7SM
08:56
Overcast
Light Rain
66°F / 19°C 66°F / 19°C 100% 29.83 in
(1010 mb)
SE 17.3 mph
(SE 28 kph)
0.08 in
(2.03 mm)
5SM
08:35
Overcast
Rain
66°F / 19°C 66°F / 19°C 100% 29.89 in
(1012 mb)
SSE 9.2 mph
(SSE 15 kph)
0.05 in
(1.27 mm)
3SM
08:16
Thunder Storms
68°F / 20°C 68°F / 20°C 100% 29.92 in
(1013 mb)
SSE 9.2 mph
(SSE 15 kph)
-
08:13
Fair
N/A N/A N/A 29.92 in
(1013 mb)
SSE 6.9 mph
(SSE 11 kph)
-
06:46
Overcast
Thunder Storms
68°F / 20°C 68°F / 20°C 100% 29.95 in
(1014 mb)
NW 24.2 mph
(NW 39 kph)
0.10 in
(2.54 mm)
7SM
06:36
Mostly Cloudy
Thunder Storms
68°F / 20°C 68°F / 20°C 100% 29.83 in
(1010 mb)
N 5.8 mph
(N 9 kph)
0.09 in
(2.29 mm)
7SM
06:16
Mostly Cloudy
Thunder Storms
68°F / 20°C 68°F / 20°C 100% 29.86 in
(1011 mb)
ENE 8.1 mph
(ENE 13 kph)
0.07 in
(1.78 mm)
3SM
05:56
Thunder Storms
68°F / 20°C 68°F / 20°C 100% 29.86 in
(1011 mb)
SE 10.4 mph
(SE 17 kph)
0.02 in
(0.51 mm)
05:36
Overcast
Thunder Storms
70°F / 21°C 70°F / 21°C 100% 29.89 in
(1012 mb)
S 13.8 mph
(S 22 kph)
0.05 in
(1.27 mm)
5SM
05:15
Overcast
68°F / 20°C 68°F / 20°C 100% 29.89 in
(1012 mb)
SSE 11.5 mph
(SSE 19 kph)
- 7SM
04:56
Overcast
Thunder Storms
68°F / 20°C 68°F / 20°C 100% 29.89 in
(1012 mb)
SSE 8.1 mph
(SSE 13 kph)
- 10SM
04:36
Mostly Cloudy
Light Rain
68°F / 20°C 70°F / 21°C N/A 29.86 in
(1011 mb)
SSE 8.1 mph
(SSE 13 kph)
- 4SM
04:16
Partly Cloudy
Fog And Mist
68°F / 20°C 68°F / 20°C 100% 29.83 in
(1010 mb)
SSE 6.9 mph
(SSE 11 kph)
- 4SM
03:56
Partly Cloudy
Fog And Mist
70°F / 21°C 70°F / 21°C 100% 29.86 in
(1011 mb)
SE 5.8 mph
(SE 9 kph)
- 4SM
03:36
Mostly Cloudy
Fog And Mist
70°F / 21°C 70°F / 21°C 100% 29.83 in
(1010 mb)
SE 5.8 mph
(SE 9 kph)
- 4SM
03:16
Mostly Cloudy
Fog And Mist
70°F / 21°C 70°F / 21°C 100% 29.86 in
(1011 mb)
SE 5.8 mph
(SE 9 kph)
- 4SM
02:56
Clear
Fog And Mist
70°F / 21°C 70°F / 21°C 100% 29.89 in
(1012 mb)
SSE 6.9 mph
(SSE 11 kph)
- 5SM
02:36
Partly Cloudy
70°F / 21°C 68°F / 20°C 94% 29.89 in
(1012 mb)
SSE 5.8 mph
(SSE 9 kph)
- 7SM
02:16
Mostly Cloudy
Thunder Storms
70°F / 21°C 68°F / 20°C 94% 29.89 in
(1012 mb)
SSE 5.8 mph
(SSE 9 kph)
- 10SM
01:56
Partly Cloudy
68°F / 20°C 68°F / 20°C 100% 29.89 in
(1012 mb)
SSE 6.9 mph
(SSE 11 kph)
- 10SM
01:36
Mostly Cloudy
68°F / 20°C 68°F / 20°C 100% 29.92 in
(1013 mb)
SSE 5.8 mph
(SSE 9 kph)
- 10SM
01:16
Clear
68°F / 20°C 68°F / 20°C 100% 29.92 in
(1013 mb)
SSE 5.8 mph
(SSE 9 kph)
- 10SM
00:56
Partly Cloudy
68°F / 20°C 68°F / 20°C 100% 29.92 in
(1013 mb)
SSE 6.9 mph
(SSE 11 kph)
- 10SM
00:36
Partly Cloudy
68°F / 20°C 68°F / 20°C 100% 29.92 in
(1013 mb)
SE 4.6 mph
(SE 7 kph)
- 10SM
00:16
Partly Cloudy
68°F / 20°C 68°F / 20°C 100% 29.92 in
(1013 mb)
SSE 6.9 mph
(SSE 11 kph)
- 10SM
Time Weather Temperature Dewpoint Humidity Pressure Winds Precip Visibility


Weather for websites

WeatherForYou.com, LLC is not responsible for any damages or problems caused by this service. Current weather conditions are obtained from the closest station including government and personal stations which may have varying degrees of accuracy. Weather forecasts are derived from the NOAA NDFD. Like all things, this site belongs to Jesus Christ... He just trusts me to maintain it. If you have any questions or comments email webmaster@weatherforyou.com

Copyright © 2014, WeatherForYou.com LLC. All rights reserved.